Вернуться в каталог

MICE-1

АктивенВоенныеSSO
NORAD 66684·PAYLOAD·🇬🇷 Greece

Запущен Nov 28, 2025 с Vandenberg Space Force Base

Loading…

Ближайшие Пролёты (ближайшие 24 часа)

TLE

СвежийSource: Space-Track

Эпоха: Sep 14, 2026, 11:28 UTC

1 66684U 25276U   26257.47800062  .00002908  00000-0  13922-3 0  9990
2 66684  97.4198 329.6170 0006559  53.7900 306.3941 15.19727490 43971

Отслеживайте MICE-1 в реальном времени с AllMySat

Download on the App Store